This is the latest recevied weather packets stored in our database for station/object K1RFS. If no packets are shown the sender has not sent any weather packets the latest 10 day(s).
| Time | Temp. | Humidity | Pressure | Rain* | Wind** | Luminosity | Snow |
|---|---|---|---|---|---|---|---|
| 1787903710 | 21.11° C | 51% | 1005.6 hPa | 0 mm | - | 0 W/m² | - |
| 1787903407 | 21.67° C | 51% | 1005.6 hPa | 0 mm | - | 0 W/m² | - |
| 1787903101 | 21.67° C | 50% | 1005.5 hPa | 0 mm | - | 0 W/m² | - |
| 1787902799 | 21.11° C | 50% | 1005.6 hPa | 0 mm | - | 0 W/m² | - |
| 1787902494 | 21.11° C | 52% | 1005.7 hPa | 0 mm | - | 0 W/m² | - |
| 1787902189 | 21.11° C | 52% | 1005.6 hPa | 0 mm | - | 0 W/m² | - |
| 1787901884 | 21.11° C | 52% | 1005.7 hPa | 0 mm | - | 0 W/m² | - |
| 1787901579 | 20.56° C | 54% | 1006 hPa | 0 mm | - | 0 W/m² | - |
| 1787901271 | 20.56° C | 55% | 1006 hPa | 0 mm | - | 0 W/m² | - |
| 1787900970 | 20.56° C | 56% | 1006 hPa | 0 mm | - | 0 W/m² | - |
| 1787900665 | 21.11° C | 55% | 1006 hPa | 0 mm | - | 0 W/m² | - |
| 1787900365 | 21.67° C | 53% | 1006 hPa | 0 mm | - | 0 W/m² | - |
| 1787900060 | 21.67° C | 53% | 1006.1 hPa | 0 mm | - | 0 W/m² | - |
| 1787899755 | 21.11° C | 54% | 1005.8 hPa | 0 mm | - | 0 W/m² | - |
| 1787899452 | 21.67° C | 54% | 1006.1 hPa | 0 mm | - | 0 W/m² | - |
| 1787899146 | 21.67° C | 53% | 1006 hPa | 0 mm | - | 0 W/m² | - |
| 1787898845 | 21.67° C | 54% | 1006.1 hPa | 0 mm | - | 0 W/m² | - |
| 1787898540 | 21.67° C | 55% | 1006 hPa | 0 mm | - | 0 W/m² | - |
| 1787898239 | 21.67° C | 56% | 1006.3 hPa | 0 mm | - | 0 W/m² | - |
| 1787897934 | 21.67° C | 55% | 1006.2 hPa | 0 mm | - | 0 W/m² | - |
| 1787897629 | 21.67° C | 55% | 1006.4 hPa | 0 mm | - | 0 W/m² | - |
| 1787897328 | 22.22° C | 53% | 1006.6 hPa | 0 mm | - | 0 W/m² | - |
| 1787897023 | 22.78° C | 51% | 1006.6 hPa | 0 mm | - | 0 W/m² | - |
| 1787896721 | 22.78° C | 51% | 1006.6 hPa | 0 mm | - | 0 W/m² | - |
| 1787896418 | 22.78° C | 51% | 1006.8 hPa | 0 mm | - | 0 W/m² | - |
* Rain latest hour (hover to see other rain measurements)
** Current wind speed in m/s (hover to see current wind gust speed)